Wind_Speed
18 17 15 15 14 14 14 12 12 11 9 8 7 8 9 10 12 15 16 20 21 20 20 18 20 19 21 26 23 24 33 39 36 34 32 26 23 19 17 22 27 10 19 17 13
18 18 16 13 13 13 13 13 11 11 10 9 9 9 9 9 10 12 14 13 15 16 17 16 17 17 21 23 24 28 36 40 32 31 32 31 28 22 23 20 28 35 20 20 13
20 18 17 13 12 12 13 12 12 10 10 10 10 9 8 8 9 15 7 8 10 11 12 16 15 14 19 21 23 28 41 32 29 28 31 32 32 26 23 25 21 26 29 23 16
22 20 17 15 13 12 11 12 11 10 9 9 10 9 7 5 3 10 10 10 9 9 9 6 9 13 17 22 23 30 31 32 31 29 30 32 31 35 29 22 22 23 29 27 30
21 21 19 17 14 12 10 10 10 9 9 9 9 9 9 8 7 20 12 10 8 5 6 6 9 12 17 19 21 29 29 29 31 29 29 31 32 28 28 24 23 20 22 28 34
22 21 20 18 14 11 8 8 8 9 9 9 8 9 10 6 10 21 17 12 9 6 4 8 7 11 17 17 22 22 26 29 28 30 27 30 30 27 35 28 27 25 22 26 24
23 22 19 17 13 9 8 6 6 7 9 9 9 10 11 9 14 16 14 11 8 8 9 7 12 12 6 12 16 20 23 24 26 26 31 27 31 36 32 29 31 33 32 29 33
22 22 20 16 13 9 7 7 6 6 6 8 10 11 10 8 14 13 10 8 10 11 11 12 11 13 14 14 18 15 20 27 28 26 28 26 38 29 27 29 33 33 31 28 24
20 20 19 17 13 10 8 7 7 8 8 8 8 7 7 14 12 12 11 8 9 9 10 10 12 12 13 16 18 20 25 25 26 25 28 32 35 27 25 26 29 25 31 32 27
18 18 18 17 14 11 9 8 8 10 8 5 5 2 5 7 7 7 9 12 12 9 11 12 11 13 15 18 24 21 26 25 24 24 20 21 26 25 24 20 22 24 22 23 26
17 16 16 16 14 12 10 9 13 13 7 5 9 9 6 5 9 10 10 10 10 11 14 11 14 16 16 19 20 23 28 22 21 19 15 19 20 22 23 25 24 23 22 23 25
16 15 14 14 13 12 11 8 8 10 13 9 14 14 14 9 11 9 9 13 11 13 13 14 21 18 18 20 20 18 18 24 25 18 17 20 25 26 27 29 30 29 28 25 23
17 15 14 13 12 10 11 12 10 10 12 4 10 11 10 12 10 9 12 13 14 17 15 19 18 12 12 17 18 20 21 22 23 22 20 19 27 30 34 35 36 33 31 28 26
19 15 13 12 10 10 7 13 9 9 7 9 7 5 7 8 13 11 12 15 15 18 18 21 20 19 16 19 19 23 17 19 20 24 22 20 25 23 21 17 29 26 29 27 25
21 17 14 12 10 5 11 8 6 6 5 5 4 7 5 11 1 9 10 13 17 19 19 22 18 16 20 20 18 20 16 18 17 19 21 27 24 31 23 25 22 20 17 19 19
23 20 16 12 9 6 10 4 2 4 6 4 3 5 6 12 14 11 10 12 14 19 22 26 24 24 22 18 19 17 18 18 22 21 22 32 30 33 28 25 21 21 18 14 13
25 21 17 13 7 12 8 1 7 9 3 3 5 8 12 14 19 18 18 22 21 22 23 24 25 24 26 29 25 24 23 17 19 18 17 29 33 30 19 5 20 22 15 12 13
24 23 18 15 9 7 4 2 10 10 12 9 11 15 18 17 20 21 23 27 25 24 26 23 26 24 23 29 24 24 24 19 11 14 19 24 12 23 12 14 18 16 15 11 12
23 22 18 5 9 8 4 11 14 14 14 13 18 18 16 17 20 19 22 25 24 26 23 13 19 18 15 14 15 22 26 26 21 23 23 28 24 33 12 10 16 16 11 11 11
23 23 11 15 17 13 8 17 18 16 13 14 17 15 19 19 21 22 19 18 26 20 18 22 25 25 22 16 19 24 21 16 12 13 17 20 27 26 15 27 19 13 13 10 9
21 14 15 17 24 15 12 12 16 13 13 14 15 20 20 21 20 23 27 26 15 12 15 17 20 24 19 23 22 19 26 23 19 13 2 8 12 9 7 11 18 17 12 11 12
22 8 21 17 15 7 10 13 17 19 16 15 17 20 21 20 23 25 26 25 20 15 13 15 9 20 19 21 24 27 24 25 17 19 27 29 29 19 10 4 17 16 14 13 14
27 10 13 20 7 14 14 17 18 17 14 13 16 17 20 22 24 22 23 17 12 11 4 8 6 16 16 17 15 7 15 16 12 30 26 18 33 22 9 9 13 16 20 21 20
24 10 9 13 11 14 18 19 12 14 16 14 14 18 17 17 18 21 21 19 21 18 17 16 16 20 21 24 14 19 22 28 14 13 23 31 36 30 31 30 30 29 23 25 24
16 9 19 15 17 20 17 17 18 14 13 15 19 15 18 21 19 18 17 17 12 14 12 11 18 19 24 27 25 23 23 21 21 29 26 30 33 27 30 33 34 32 23 33 38
16 19 15 19 14 14 14 15 16 14 16 22 17 15 14 16 16 21 17 15 15 12 10 11 13 15 23 22 23 26 26 27 31 35 36 34 40 33 32 32 22 24 32 33 29
20 16 19 18 15 15 14 17 17 20 14 12 15 17 17 16 17 17 17 16 14 14 14 14 17 16 21 17 21 22 22 22 25 26 32 36 27 28 33 37 32 24 24 28 24
Wind_Direction
325 320 316 317 316 318 316 302 286 283 282 283 283 282 279 275 268 260 251 250 250 250 250 240 235 230 225 226 227 229 239 245 243 246 248 244 242 249 223 222 216 248 237 246 303
329 326 320 313 314 311 313 312 298 280 273 272 273 275 279 282 280 270 259 259 251 245 243 235 231 229 228 230 226 223 234 240 244 248 251 253 254 253 208 223 222 222 228 249 272
335 330 329 320 316 311 307 309 309 291 272 263 263 265 271 279 290 274 281 259 259 249 237 229 222 223 239 231 230 230 237 241 245 249 254 256 256 249 252 245 235 225 231 248 241
340 337 329 323 316 309 303 299 305 302 286 267 261 262 258 247 50 276 269 280 258 250 242 206 251 239 237 237 237 238 244 244 248 250 252 252 256 250 244 245 259 239 228 226 235
343 338 335 329 319 309 300 290 298 303 294 278 269 259 252 238 261 265 262 262 261 239 207 234 246 247 248 247 241 241 246 247 249 250 252 253 260 260 249 243 246 266 243 244 232
349 345 339 334 329 317 301 291 292 301 300 291 278 268 250 210 259 262 261 268 255 238 248 260 241 252 243 246 242 250 248 250 250 250 252 252 257 251 248 248 248 255 253 271 259
349 351 347 342 338 329 313 304 293 296 299 298 290 278 265 215 228 275 275 263 246 237 245 259 238 246 241 265 262 253 256 250 248 249 245 250 252 243 250 256 253 253 254 252 258
346 349 351 347 346 342 328 318 309 301 302 301 296 290 275 242 246 239 234 237 242 251 243 231 254 255 247 256 259 260 250 254 252 251 244 236 250 249 252 253 255 253 247 246 240
343 345 349 351 351 349 341 332 322 310 307 302 297 299 354 280 277 225 213 235 255 260 250 252 259 256 255 252 257 249 253 254 262 248 246 230 248 254 253 255 249 250 241 237 247
341 342 345 348 350 351 345 339 337 335 313 321 345 304 305 273 273 202 216 220 238 246 257 260 266 258 247 236 243 247 241 249 255 259 217 223 244 259 250 262 229 237 241 238 241
337 340 340 344 346 347 343 344 352 337 295 257 280 225 291 217 207 227 222 233 234 248 247 254 252 245 247 245 252 257 270 277 269 236 212 232 254 250 251 249 247 243 243 244 242
336 338 339 339 343 341 343 350 326 291 299 272 264 257 239 223 249 247 211 229 240 247 254 256 246 258 257 250 261 264 271 266 267 267 270 261 258 260 259 254 247 247 245 244 243
339 338 338 335 336 339 333 351 339 325 293 235 239 265 251 234 233 242 231 235 242 251 258 257 257 277 261 255 260 257 258 264 264 262 267 261 269 268 264 255 244 242 243 243 240
341 335 335 333 330 22 347 333 342 316 304 236 265 298 208 228 252 233 234 245 250 254 263 261 263 262 252 257 256 258 256 259 264 259 265 260 273 269 262 273 237 246 244 240 238
342 335 330 328 322 7 264 306 335 345 283 188 207 228 248 212 172 272 226 238 248 255 261 261 265 258 255 255 253 256 263 267 269 268 266 258 259 265 263 259 234 221 218 219 220
343 334 327 321 314 332 315 308 342 287 254 243 263 301 260 243 257 255 252 250 252 256 261 265 265 262 262 261 247 271 270 269 266 260 259 256 253 264 258 274 233 198 194 209 219
344 337 325 313 291 276 299 309 289 254 290 310 304 295 273 275 268 255 255 252 250 258 261 266 262 259 256 253 253 250 275 259 250 236 247 254 243 244 251 230 210 184 189 203 215
336 338 332 307 303 308 284 281 254 271 311 307 306 298 283 281 270 266 265 266 266 258 271 290 292 273 244 253 262 246 240 265 285 293 299 297 296 234 249 211 201 180 185 209 224
330 331 335 336 349 324 275 249 250 305 305 311 306 298 291 291 279 277 267 278 280 267 267 245 268 272 295 274 245 246 240 248 266 280 277 273 263 273 262 213 192 210 216 217 219
334 335 348 346 332 313 272 259 276 297 305 300 297 295 299 304 308 299 288 287 285 281 280 272 284 269 277 278 244 244 253 245 244 264 266 270 273 278 297 220 203 216 206 217 217
335 349 294 310 314 305 258 275 291 291 305 302 292 292 296 301 300 296 293 300 312 282 283 273 273 263 266 259 259 253 248 238 232 237 278 288 277 277 242 179 208 191 211 229 220
341 332 292 329 311 285 275 306 299 300 296 293 285 288 293 298 297 296 298 304 308 286 282 263 298 289 275 273 273 261 261 246 244 254 242 260 265 261 187 191 257 228 222 251 246
340 347 297 327 324 306 299 302 302 301 290 291 288 286 290 293 297 296 296 294 301 287 273 308 279 298 295 311 267 291 258 312 319 248 235 253 263 232 287 215 184 251 249 264 267
341 335 298 300 307 305 306 309 303 298 298 298 297 302 302 296 294 299 301 294 304 290 284 294 282 275 273 284 290 292 298 280 287 272 256 252 264 271 276 278 263 283 281 276 275
333 303 302 297 307 301 302 298 304 309 294 296 304 294 297 300 299 295 299 298 305 280 293 264 282 281 278 284 285 277 271 269 271 270 265 271 263 270 277 285 288 285 288 283 266
306 313 288 304 308 310 313 310 295 297 302 306 298 298 295 293 295 299 297 291 284 297 301 298 276 295 291 288 284 278 278 276 263 259 257 259 260 275 277 271 276 301 284 274 280
290 297 304 312 315 306 303 301 297 303 308 304 301 298 296 295 287 286 279 274 271 274 277 282 289 301 288 295 302 287 278 275 272 277 263 268 277 279 285 286 270 282 295 304 289
Height
3108 3105 3102 3100 3098 3097 3096 3094 3093 3092 3091 3091 3091 3091 3091 3091 3092 3092 3093 3094 3096 3098 3100 3103 3105 3108 3111 3114 3121 3126 3125 3118 3123 3124 3124 3127 3127 3124 3125 3131 3135 3139 3140 3140 3136
3106 3103 3100 3098 3096 3095 3094 3093 3091 3091 3090 3090 3090 3089 3089 3089 3089 3089 3091 3092 3094 3095 3097 3100 3103 3106 3108 3112 3115 3118 3115 3115 3121 3121 3121 3122 3123 3126 3121 3123 3126 3131 3136 3136 3138
3105 3102 3099 3097 3094 3093 3092 3091 3090 3089 3089 3088 3088 3088 3088 3088 3089 3085 3088 3090 3092 3093 3094 3097 3100 3105 3107 3110 3112 3112 3107 3114 3115 3117 3117 3116 3117 3121 3122 3122 3124 3126 3129 3134 3134
3104 3101 3097 3095 3093 3091 3089 3089 3088 3087 3087 3087 3087 3087 3087 3088 3091 3087 3088 3089 3090 3091 3092 3094 3099 3100 3103 3104 3107 3107 3107 3109 3111 3112 3113 3112 3115 3112 3115 3117 3122 3122 3123 3125 3127
3103 3100 3096 3093 3091 3088 3087 3086 3086 3086 3086 3085 3085 3085 3086 3086 3087 3084 3087 3088 3089 3089 3090 3096 3099 3101 3100 3102 3103 3101 3103 3104 3106 3107 3107 3108 3106 3106 3109 3112 3117 3118 3118 3118 3119
3102 3098 3095 3092 3089 3087 3085 3084 3084 3084 3084 3084 3084 3084 3084 3086 3084 3081 3084 3086 3087 3088 3091 3095 3097 3098 3095 3096 3098 3099 3098 3098 3099 3099 3101 3100 3100 3102 3102 3107 3110 3113 3113 3112 3114
3102 3098 3094 3090 3088 3086 3085 3083 3083 3082 3082 3082 3082 3081 3082 3083 3082 3081 3081 3082 3084 3087 3089 3092 3092 3092 3094 3094 3094 3093 3092 3092 3092 3094 3094 3098 3095 3093 3100 3103 3103 3106 3107 3109 3109
3101 3097 3093 3090 3087 3085 3084 3084 3082 3081 3081 3080 3080 3079 3079 3079 3080 3080 3081 3082 3084 3084 3085 3087 3086 3087 3088 3091 3089 3090 3090 3087 3086 3088 3088 3093 3083 3090 3095 3097 3095 3097 3099 3102 3104
3101 3097 3093 3090 3087 3085 3084 3083 3082 3081 3079 3079 3079 3078 3077 3075 3076 3078 3080 3083 3085 3083 3083 3083 3083 3084 3087 3087 3087 3086 3083 3081 3079 3080 3081 3081 3079 3085 3088 3089 3089 3088 3092 3094 3099
3101 3097 3094 3090 3088 3086 3084 3082 3082 3081 3079 3078 3078 3080 3078 3078 3074 3076 3079 3081 3082 3083 3083 3082 3082 3082 3083 3083 3080 3079 3076 3075 3074 3073 3072 3075 3076 3080 3082 3083 3081 3083 3085 3089 3091
3100 3097 3094 3091 3088 3086 3084 3083 3083 3080 3079 3077 3079 3077 3079 3079 3076 3075 3077 3078 3079 3081 3081 3082 3082 3079 3078 3078 3077 3076 3073 3072 3069 3070 3069 3071 3073 3075 3077 3078 3078 3078 3081 3083 3085
3099 3096 3093 3091 3088 3086 3084 3082 3082 3082 3076 3075 3077 3075 3076 3076 3076 3075 3077 3079 3079 3078 3079 3080 3076 3076 3075 3074 3073 3072 3072 3071 3069 3068 3067 3068 3068 3070 3071 3070 3071 3073 3074 3076 3079
3098 3095 3092 3090 3088 3086 3084 3083 3081 3079 3076 3074 3074 3072 3072 3073 3073 3075 3076 3076 3077 3077 3076 3074 3074 3072 3071 3071 3071 3071 3071 3070 3068 3067 3065 3064 3063 3064 3060 3059 3061 3063 3067 3070 3072
3098 3094 3092 3090 3089 3086 3087 3084 3081 3079 3077 3075 3073 3073 3072 3072 3072 3073 3074 3076 3074 3074 3073 3071 3070 3069 3068 3069 3070 3067 3067 3066 3065 3065 3062 3064 3054 3053 3052 3050 3051 3055 3058 3061 3065
3097 3093 3090 3088 3087 3087 3086 3084 3082 3081 3077 3076 3073 3071 3072 3073 3072 3071 3071 3072 3071 3071 3072 3068 3067 3066 3065 3067 3066 3065 3064 3063 3063 3062 3062 3059 3057 3048 3049 3046 3046 3048 3052 3055 3057
3096 3092 3089 3087 3085 3084 3083 3082 3083 3085 3077 3072 3072 3071 3071 3071 3070 3071 3068 3068 3068 3067 3066 3063 3063 3063 3062 3062 3062 3062 3061 3061 3060 3060 3055 3051 3052 3042 3041 3038 3039 3041 3046 3050 3053
3095 3090 3087 3084 3084 3082 3082 3082 3086 3079 3073 3071 3070 3069 3068 3067 3066 3065 3065 3063 3063 3062 3058 3057 3055 3056 3057 3056 3058 3060 3060 3056 3053 3049 3039 3039 3039 3033 3033 3033 3034 3035 3042 3047 3050
3093 3089 3085 3082 3080 3080 3080 3084 3082 3072 3070 3069 3068 3067 3065 3064 3061 3060 3059 3057 3056 3054 3054 3054 3051 3049 3046 3049 3049 3052 3056 3056 3049 3042 3036 3034 3031 3028 3029 3030 3033 3033 3037 3042 3045
3090 3086 3082 3080 3079 3079 3079 3080 3075 3073 3071 3068 3066 3063 3060 3058 3058 3056 3055 3053 3051 3050 3047 3045 3046 3044 3045 3046 3047 3047 3046 3049 3048 3047 3042 3032 3031 3026 3030 3029 3029 3032 3035 3038 3040
3088 3083 3079 3079 3078 3077 3077 3074 3072 3072 3068 3068 3066 3064 3060 3057 3055 3052 3050 3050 3044 3045 3045 3041 3037 3040 3040 3040 3041 3042 3044 3044 3047 3040 3033 3025 3025 3023 3022 3021 3026 3031 3033 3035 3037
3087 3082 3079 3079 3075 3074 3074 3072 3071 3068 3067 3066 3064 3061 3060 3057 3055 3052 3049 3046 3039 3042 3040 3039 3037 3036 3037 3035 3035 3037 3038 3037 3039 3039 3038 3030 3023 3021 3023 3021 3024 3024 3031 3032 3034
3086 3084 3078 3078 3075 3072 3072 3072 3069 3066 3064 3062 3061 3059 3057 3054 3052 3049 3046 3042 3038 3038 3038 3035 3033 3032 3031 3029 3029 3030 3029 3031 3032 3033 3030 3028 3018 3018 3022 3024 3025 3028 3027 3029 3029
3083 3079 3077 3077 3075 3071 3068 3067 3064 3062 3061 3059 3057 3056 3053 3051 3048 3046 3043 3040 3037 3038 3033 3035 3033 3034 3028 3023 3025 3024 3025 3024 3021 3024 3023 3028 3005 3023 3016 3019 3020 3021 3019 3024 3021
3082 3079 3080 3075 3074 3071 3067 3063 3062 3060 3058 3055 3054 3052 3049 3046 3044 3041 3039 3036 3034 3034 3032 3032 3030 3030 3027 3026 3026 3025 3022 3020 3024 3023 3020 3017 3012 3016 3013 3013 3015 3013 3013 3013 3009
3081 3079 3074 3071 3068 3065 3063 3061 3058 3057 3056 3053 3049 3048 3046 3043 3040 3038 3036 3034 3033 3030 3029 3029 3027 3027 3023 3022 3022 3019 3019 3019 3016 3014 3015 3012 3010 3010 3010 3008 3008 3007 3001 2997 2999
3076 3073 3070 3066 3065 3062 3061 3058 3056 3054 3051 3048 3046 3044 3042 3040 3038 3034 3033 3032 3031 3030 3027 3027 3023 3023 3020 3018 3016 3013 3012 3011 3009 3008 3007 3004 3001 3005 2999 2997 2996 2995 2992 2989 2991
3069 3069 3065 3061 3061 3061 3059 3055 3052 3049 3046 3045 3043 3040 3038 3036 3032 3028 3027 3026 3026 3026 3026 3026 3024 3023 3016 3015 3011 3008 3005 3003 3002 3000 3000 2995 2993 2990 2989 2988 2986 2986 2986 2982 2983